Temp
16 16 17 17 17 18 18 18 18 18 18 18 18 18 18 18 18 18 18 18 18 18 18 18 18 17 18 17 16 17 18 17 16
16 17 15 16 16 17 17 17 18 18 18 18 18 18 18 19 18 18 18 17 17 17 18 18 17 18 18 18 17 17 17 17 17
15 15 15 14 15 16 16 16 17 17 17 18 18 18 18 18 18 18 18 18 17 17 17 17 17 17 17 18 16 16 16 17 17
14 14 14 15 15 15 16 16 16 16 17 17 17 17 18 18 18 18 18 18 17 17 18 17 17 17 17 18 17 17 17 17 17
13 14 13 13 14 15 15 16 16 16 16 16 16 16 17 17 17 18 18 18 17 17 17 18 17 17 17 17 17 17 17 17 17
12 12 12 12 13 14 14 14 15 15 16 16 16 16 16 17 17 17 17 18 18 18 18 18 18 17 17 17 17 17 17 17 17
11 11 11 12 12 13 13 14 14 15 15 15 15 16 16 16 17 17 17 17 18 18 18 18 18 18 17 17 17 17 17 18 17
10 11 11 11 11 12 12 12 13 13 14 14 14 14 14 15 16 17 17 17 17 18 17 17 17 17 18 18 17 17 17 18 18
9 9 9 9 10 10 11 11 11 12 12 13 13 14 14 14 15 15 16 17 17 18 18 17 17 17 17 17 17 17 17 17 17
7 7 7 8 8 8 9 9 10 11 11 11 12 13 14 14 15 15 16 16 17 17 18 17 17 17 17 17 17 17 17 17 17
6 6 6 6 6 6 7 7 8 9 10 11 12 12 13 14 14 15 15 16 16 17 17 17 17 17 17 16 17 17 17 17 16
5 5 5 5 5 6 6 6 7 8 9 10 11 12 13 14 14 15 15 15 15 16 16 17 17 17 17 17 16 17 17 17 16
4 4 3 3 4 4 4 4 5 5 6 7 9 11 12 13 13 13 13 13 13 14 15 16 16 17 17 17 17 16 16 17 16
2 2 2 2 2 3 3 3 2 2 3 5 7 9 11 11 10 10 10 11 11 12 12 14 14 16 16 17 17 17 16 16 16
2 2 2 2 2 1 1 1 1 -0 0 3 5 8 9 8 8 8 9 9 10 10 10 12 12 13 14 16 16 16 16 16 16
-1 -1 -1 -1 -1 -1 -1 0 0 -0 -1 -0 2 5 7 5 6 5 6 7 7 8 9 9 8 10 12 13 13 15 16 16 16
-3 -3 -3 -3 -3 -3 -3 -3 -3 -2 -3 -4 -3 -1 2 5 5 3 4 3 4 5 5 6 6 7 8 9 10 13 13 15 15
-2 -3 -3 -3 -3 -4 -5 -5 -5 -5 -3 -4 -3 -3 -3 -3 0 1 2 1 2 1 3 3 5 6 6 5 7 7 8 13 14
-2 -3 -3 -3 -3 -4 -5 -5 -5 -5 -6 -4 -4 -5 -4 -3 -3 -1 -1 -1 -1 -1 0 1 3 3 5 6 5 5 7 8 10
-3 -3 -3 -3 -4 -4 -4 -5 -5 -5 -6 -6 -6 -6 -5 -4 -4 -4 -3 -3 -3 -2 -2 -0 0 2 3 4 4 4 4 5 6
Height
848 849 849 849 851 850 850 850 851 851 852 853 853 853 853 853 852 852 852 853 853 853 853 853 854 854 855 855 856 856 857 857 858
850 850 851 850 851 852 852 852 852 853 853 853 854 854 854 854 854 854 854 854 855 855 854 855 855 856 856 856 857 858 858 859 859
850 851 852 852 853 853 853 853 853 853 854 854 855 855 855 855 854 855 855 855 856 856 856 856 856 857 858 858 858 859 859 860 861
853 853 852 853 853 853 853 854 853 853 854 855 855 856 855 856 856 855 856 856 857 857 857 857 857 858 858 859 859 859 860 861 862
855 855 854 854 854 853 853 854 854 854 855 855 855 855 856 856 856 856 856 856 857 857 857 857 857 858 858 859 860 860 860 862 862
857 857 857 856 854 855 855 855 854 854 854 855 855 856 856 855 855 856 857 857 857 857 857 857 857 858 858 858 859 860 860 861 863
861 860 860 858 857 856 856 856 855 854 853 853 854 854 855 856 855 855 856 856 856 856 856 857 857 857 857 857 858 859 860 860 860
863 862 861 860 858 857 857 856 855 855 854 854 854 854 854 853 854 854 854 854 854 854 855 856 855 855 855 855 857 858 859 859 859
865 864 864 862 860 860 859 859 858 856 855 855 854 854 853 853 852 851 852 852 852 851 852 853 853 853 853 854 854 856 858 858 859
869 868 867 865 864 864 862 861 859 857 856 855 854 853 852 851 850 850 849 849 849 849 849 850 851 851 851 851 852 853 855 856 857
872 870 869 868 867 867 865 863 861 858 856 854 852 851 850 849 848 847 846 846 846 846 845 846 848 848 848 849 849 850 852 853 854
874 874 872 872 871 869 867 865 863 859 857 855 853 851 849 848 846 844 843 842 842 842 842 842 843 844 844 845 846 847 848 850 851
877 876 875 874 873 870 868 865 863 860 858 854 852 850 847 846 844 843 841 840 839 838 838 838 840 841 841 841 842 843 844 846 847
879 878 876 876 873 871 870 868 864 861 858 855 852 850 846 844 843 841 840 839 837 836 834 833 834 836 837 837 838 839 840 841 843
882 880 879 877 875 873 870 868 866 863 859 854 851 847 845 844 843 841 839 838 837 835 833 831 830 830 833 833 834 836 836 837 838
884 882 881 879 878 876 873 871 867 864 860 853 846 844 844 841 841 841 839 837 836 836 834 831 830 827 826 827 829 831 832 832 832
884 882 880 879 877 876 874 872 870 868 865 863 858 851 843 840 840 841 840 839 838 835 834 832 830 828 826 824 823 822 822 825 825
884 883 882 880 878 877 877 875 873 871 869 868 869 864 863 853 841 841 841 840 838 837 834 832 830 828 825 822 820 816 817 816 817
885 884 882 881 880 879 878 877 876 874 872 870 871 872 871 864 849 842 842 841 839 836 834 832 829 828 826 823 821 817 812 811 810
885 884 883 881 880 879 878 877 876 875 874 872 870 869 867 864 863 849 841 840 839 836 834 831 830 827 825 821 816 812 809 807 807
Wind_Speed
17 20 17 14 13 12 10 9 8 8 6 6 7 8 7 6 8 8 7 8 9 8 8 8 10 11 13 11 12 13 11 14 16
14 13 16 17 16 12 11 9 8 5 4 3 2 4 6 3 5 6 5 7 5 7 7 8 8 9 8 9 10 10 8 10 12
13 12 11 16 18 13 13 10 8 8 5 2 1 2 5 3 2 4 4 4 3 3 5 7 7 8 8 8 9 9 10 10 9
16 11 11 10 10 10 9 7 7 7 6 5 3 3 3 3 1 1 2 2 2 2 3 6 7 7 8 8 9 9 9 8 7
16 16 15 12 9 8 8 7 7 5 5 5 4 3 4 4 5 5 4 3 2 3 3 3 7 9 8 9 9 8 10 10 7
20 22 20 21 16 11 12 12 9 6 4 4 4 5 6 6 7 8 7 7 6 6 4 5 6 10 11 10 9 9 12 11 8
24 23 22 20 21 19 17 11 11 11 11 10 8 7 6 9 9 9 10 11 11 10 9 9 9 10 13 13 12 12 11 11 12
27 27 27 26 25 25 23 21 19 17 15 14 13 12 12 9 9 12 12 13 15 15 14 13 14 13 14 15 15 16 15 12 12
30 30 29 29 29 28 27 26 23 21 18 16 15 13 14 15 16 13 13 14 15 18 17 15 14 16 14 16 18 17 16 15 14
29 30 29 30 29 29 28 27 26 24 23 22 20 18 16 16 17 19 18 16 16 16 19 16 16 17 17 19 20 21 19 18 17
28 28 29 30 29 29 28 28 28 27 26 25 24 22 20 19 19 20 21 21 20 19 18 17 19 20 19 19 21 21 22 21 20
27 27 27 28 27 28 28 29 28 28 28 27 25 24 22 22 21 21 21 23 23 22 23 22 20 24 23 21 21 23 24 24 23
25 26 26 26 27 28 29 30 31 30 32 32 28 26 24 22 20 19 18 18 21 23 23 24 25 21 27 24 25 25 26 26 26
24 25 26 26 27 28 28 28 30 31 34 31 29 26 21 19 16 16 16 14 15 16 20 23 24 24 24 31 28 27 27 28 29
19 21 22 23 25 27 29 29 29 27 34 29 28 20 16 15 11 18 19 17 18 20 21 17 15 18 25 25 30 29 28 29 30
20 20 20 21 23 23 24 26 28 28 35 25 26 18 17 7 16 27 21 22 23 24 25 25 24 21 14 15 24 29 33 33 34
18 20 20 21 23 24 24 26 26 22 27 16 9 5 10 10 38 19 27 30 31 30 28 30 30 30 29 24 17 15 23 34 35
18 18 18 18 20 21 19 20 21 20 20 14 12 4 3 19 7 24 27 28 34 32 38 28 33 35 32 33 31 26 24 18 30
17 17 17 17 18 18 18 16 16 16 13 11 12 6 8 3 6 8 26 26 31 35 27 37 39 29 34 28 26 29 29 27 21
16 16 17 16 17 17 17 17 15 13 12 11 10 9 12 11 7 8 20 27 25 24 35 31 29 24 28 27 26 31 33 29 29
Wind_Direction
70 64 59 58 54 58 73 75 79 90 90 80 76 80 70 83 92 91 94 110 123 130 131 127 120 116 126 117 114 114 114 107 109
62 68 60 60 58 55 57 56 62 66 82 88 59 49 35 77 77 62 87 106 116 125 137 145 135 130 122 132 132 122 126 128 122
69 69 70 61 51 65 61 52 50 39 42 33 21 359 0 17 95 51 67 104 115 139 153 162 164 154 149 143 140 133 133 132 134
51 47 60 59 63 60 63 55 51 51 43 44 27 347 328 351 292 345 23 101 146 187 182 177 185 184 171 161 155 151 143 139 139
56 53 46 44 46 50 49 43 44 41 37 32 14 352 322 307 300 283 301 259 215 235 246 218 199 199 196 178 170 168 161 151 140
51 52 50 50 52 49 40 32 27 31 20 12 11 348 333 313 307 294 301 273 266 255 266 272 235 222 214 200 187 183 165 164 155
53 50 48 47 44 45 44 38 19 11 11 1 349 346 331 314 305 294 289 286 273 262 264 280 264 243 229 216 209 193 185 179 189
51 47 42 39 38 34 31 29 29 23 12 2 347 331 328 317 298 291 287 286 281 279 269 267 263 255 240 228 224 213 205 205 201
46 43 40 37 33 29 27 23 20 18 15 10 358 344 330 317 310 295 283 280 279 279 283 262 261 258 250 241 226 227 216 211 210
43 41 37 34 30 26 22 18 14 11 8 5 358 351 340 327 314 303 296 285 277 280 273 266 260 258 253 247 240 226 223 221 217
41 37 33 30 26 22 18 14 9 5 0 356 355 352 346 336 325 313 300 289 282 278 279 270 258 254 252 250 245 237 226 228 225
37 34 31 26 21 16 13 8 4 359 355 351 349 347 344 339 331 321 309 301 292 285 280 278 280 255 252 252 247 240 237 237 234
38 35 32 26 21 17 14 9 4 1 355 348 344 342 339 338 338 338 336 330 314 299 294 287 284 282 256 249 247 244 243 242 236
35 33 30 24 21 18 16 13 11 4 357 351 343 336 337 340 348 5 5 354 355 344 328 310 296 287 278 260 254 248 247 245 244
33 31 28 23 20 17 14 12 12 9 0 350 344 342 337 335 346 3 354 350 350 353 352 348 336 310 298 288 263 257 251 250 246
34 35 32 29 27 24 19 13 11 11 9 360 348 348 344 299 354 345 354 345 343 341 339 343 345 340 321 311 302 276 260 255 248
28 26 27 24 21 20 19 19 13 12 21 8 333 347 342 340 332 344 340 346 338 338 333 333 330 331 333 332 345 328 295 267 250
14 14 15 15 15 15 17 14 18 9 9 36 30 345 341 328 323 329 332 342 332 336 329 336 325 325 332 328 325 339 334 295 272
359 358 359 1 2 3 6 3 9 7 2 14 3 357 294 321 321 321 329 327 336 332 344 326 330 334 329 336 335 317 330 343 323
344 342 342 343 347 348 347 348 352 354 344 345 340 330 312 292 278 307 322 324 327 333 325 336 328 342 330 332 322 322 323 335 334